Vancouver, WA
on Monday, November 26, 2012

Monday
Previous Day Next Day
Daily Summary
 ActualAverageRecord
Temperature
Mean Temperature °F 44°F  
Max Temperature 52°F 50°F 62°F (2014)
Min Temperature 35°F 38°F 21°F (1952)
Degree Days
Heating Degree Days 21    
Month to date heating degree days 420  
Since 1 July heating degree days 739  
Cooling Degree Days 0    
Month to date cooling degree days 0  
Year to date cooling degree days 398  
Moisture
Dew Point 31°F   
Average Humidity 67    
Maximum Humidity 89    
Minimum Humidity 44    
Precipitation
Precipitation 0.00 in 0.22 in 1.58 in (1945)
Month to date precipitation 6.12 5.00  
Year to date precipitation 37.28 31.46  
Snow
Snow 0.00 in in in ()
Month to date snowfall 0.0  
Snow Depth 0.00 in   
Wind
Wind Speed 6 mph   
Max Wind Speed 13 mph   
Max Gust Speed 17 mph   
Visibility 10 miles   
Events     

Key: T is trace of precipitation, MM is missing value
Source: NWS Daily Summary
Time(PST)TemperatureDew PointHumidity Pressure Visibility Wind DirectionWind SpeedGust SpeedPrecipitationEvents Conditions
12:53 AM 46.0°F 27.0°F 47% 30.13 in 10.0 miles East 6.9 mph - N/A   Clear
1:53 AM 36.0°F 32.0°F 86% 30.13 in 10.0 miles WNW 4.6 mph - N/A   Clear
2:53 AM 39.0°F 32.0°F 76% 30.11 in 10.0 miles Calm Calm - N/A   Clear
3:53 AM 44.1°F 27.0°F 51% 30.10 in 10.0 miles Variable 3.5 mph - N/A   Clear
4:53 AM 45.0°F 25.0°F 46% 30.10 in 10.0 miles East 5.8 mph - N/A   Clear
5:53 AM 44.1°F 25.0°F 47% 30.10 in 10.0 miles ESE 5.8 mph - N/A   Clear
6:53 AM 43.0°F 25.0°F 49% 30.09 in 10.0 miles East 4.6 mph - N/A   Clear
7:53 AM 44.1°F 26.1°F 49% 30.09 in 10.0 miles East 5.8 mph - N/A   Clear
8:53 AM 37.9°F 33.1°F 83% 30.09 in 10.0 miles NW 3.5 mph - N/A   Clear
9:53 AM 43.0°F 32.0°F 65% 30.10 in 10.0 miles NW 3.5 mph - N/A   Clear
10:53 AM 46.9°F 32.0°F 56% 30.09 in 10.0 miles NNW 4.6 mph - N/A   Clear
11:53 AM 51.1°F 30.9°F 46% 30.06 in 10.0 miles East 9.2 mph - N/A   Clear
12:53 PM 51.1°F 32.0°F 48% 30.04 in 10.0 miles ESE 11.5 mph - N/A   Clear
1:53 PM 51.1°F 34.0°F 52% 30.03 in 10.0 miles SE 6.9 mph - N/A   Clear
2:53 PM 48.9°F 34.0°F 56% 30.03 in 10.0 miles ESE 8.1 mph - N/A   Clear
3:53 PM 46.0°F 34.0°F 63% 30.03 in 10.0 miles SE 8.1 mph - N/A   Clear
4:53 PM 44.1°F 33.1°F 65% 30.03 in 10.0 miles ESE 8.1 mph - N/A   Clear
5:53 PM 43.0°F 33.1°F 68% 30.04 in 10.0 miles SE 6.9 mph - N/A   Clear
6:53 PM 42.1°F 32.0°F 67% 30.04 in 10.0 miles SE 4.6 mph - N/A   Clear
7:53 PM 42.1°F 32.0°F 67% 30.06 in 10.0 miles SE 9.2 mph - N/A   Clear
8:53 PM 41.0°F 32.0°F 70% 30.07 in 10.0 miles SE 8.1 mph - N/A   Clear
9:53 PM 41.0°F 32.0°F 70% 30.08 in 10.0 miles SE 5.8 mph - N/A   Clear
11:53 PM 39.9°F 32.0°F 73% 30.10 in 10.0 miles Calm Calm - N/A   Clear
Moon Phase
Nov. 26 Nov. 28 Dec. 06 Dec. 13 Dec. 20
Sunrise:07:25 AM (PST) Moon Rise:03:28 PM (PST)11/26
Sunset:04:30 PM (PST) Moon Set:05:37 AM (PST)11/26

Copyright © 2014 The Weather Underground, Inc.